Terminal Aerodrome Forecast
Issued by NWS

Home | Current Version | Previous Version | Graphics & Text | Print | Product List | Glossary On
Versions: 1 2 3 4 5 6 7 8 9 10 11 12 13 14 15 16 17 18 19 20 21 22 23 24 25
000
FTUS43 KBIS 051406 AAB
TAFMOT
TAF AMD
KMOT 051406Z 0514/0612 01007KT P6SM VCSH BKN110
      TEMPO 0514/0515 4SM -SHRA BR OVC100
     FM051900 01015KT P6SM SCT035 BKN070
     FM060100 33007KT P6SM SCT070=

USA.gov is the U.S. government's official web portal to all federal, state and local government web resources and services.